Marfa, TX

3:28 AM CST on February 11, 2016 (GMT -0600)
Marfa Municipal

Weather History for KMRF - September, 2014

Change the Weather History Date:

Sunday, September 7, 2014

  Actual Average Record
Temperature  
Mean Temperature 66 °F -  
Max Temperature 71 °F 81 °F 96 °F (2000)
Min Temperature 62 °F 54 °F 41 °F (2010)
Cooling Degree Days 2    
Growing Degree Days 16 (Base 50)    
Moisture  
Dew Point 62 °F    
Average Humidity 92    
Maximum Humidity 100    
Minimum Humidity 73    
Precipitation  
Precipitation 0.16 in - - ()
Sea Level Pressure  
Sea Level Pressure 30.24 in    
Wind  
Wind Speed 9 mph (NE)    
Max Wind Speed 13 mph    
Max Gust Speed -    
Visibility 10 miles    
Events      
Averages and records for this station are not official NWS values.
T = Trace of Precipitation, MM = Missing Value Source: NWS Daily Summary

Daily Weather History Graph

Daily Weather History Graph

Search for Another Location

Airport or City:

Trip Planner

Search our weather history database for the weather conditions in past years. The results will help you decide how hot, cold, wet, or windy it might be!

Date:

Astronomy

Sep. 07, 2014 Rise Set
Actual Time 7:36 AM CDT 8:11 PM CDT
Civil Twilight 7:11 AM CDT 8:35 PM CDT
Nautical Twilight 6:43 AM CDT 9:04 PM CDT
Astronomical Twilight 6:14 AM CDT 9:33 PM CDT
Moon 7:10 PM CDT (9/7) 5:56 AM CDT (9/7)
Length of Visible Light 13h 23m
Length of Day
12h 35m
Waxing Gibbous, 97% of the Moon is Illuminated
Sep 7
Waxing Gibbous
Sep 8
Full
Sep 15
Last Quarter
Sep 24
New
Oct 1
First Quarter

Hourly Weather History & Observations

Time (CDT) Temp. Dew Point Humidity Pressure Visibility Wind Dir Wind Speed Gust Speed Precip Events Conditions
12:15 AM 64.4 °F 62.6 °F 94% 30.26 in 10.0 mi NE 9.2 mph - N/A   Overcast
12:35 AM 64.4 °F 62.6 °F 94% 30.26 in 9.0 mi NE 10.4 mph - 0.01 in   Overcast
12:55 AM 62.6 °F 62.6 °F 100% 30.26 in 10.0 mi ENE 9.2 mph - 0.01 in   Overcast
1:15 AM 62.6 °F 62.6 °F 100% 30.26 in 10.0 mi ENE 11.5 mph - N/A   Overcast
1:35 AM 62.6 °F 62.6 °F 100% 30.25 in 10.0 mi NE 10.4 mph - N/A   Overcast
1:55 AM 62.6 °F 62.6 °F 100% 30.25 in 10.0 mi NE 9.2 mph - N/A   Mostly Cloudy
2:35 AM 62.6 °F 62.6 °F 100% 30.24 in 10.0 mi NE 9.2 mph - N/A   Mostly Cloudy
2:55 AM 62.6 °F 62.6 °F 100% 30.24 in 10.0 mi NE 8.1 mph - N/A   Overcast
3:15 AM 62.6 °F 62.6 °F 100% 30.24 in 10.0 mi NE 10.4 mph - N/A   Overcast
3:35 AM 62.6 °F 62.6 °F 100% 30.24 in 10.0 mi NE 10.4 mph - N/A   Overcast
3:55 AM 62.6 °F 60.8 °F 94% 30.24 in 10.0 mi NE 12.7 mph - N/A   Overcast
4:15 AM 62.6 °F 60.8 °F 94% 30.23 in 10.0 mi NE 10.4 mph - 0.02 in   Overcast
4:35 AM 62.6 °F 60.8 °F 94% 30.23 in 9.0 mi NE 10.4 mph - 0.05 in   Mostly Cloudy
4:55 AM 62.6 °F 60.8 °F 94% 30.23 in 10.0 mi NE 10.4 mph - 0.09 in   Mostly Cloudy
5:15 AM 62.6 °F 60.8 °F 94% 30.23 in 10.0 mi NE 9.2 mph - 0.01 in   Overcast
5:35 AM 62.6 °F 60.8 °F 94% 30.23 in 10.0 mi NE 8.1 mph - 0.01 in   Overcast
5:55 AM 62.6 °F 60.8 °F 94% 30.22 in 10.0 mi NE 6.9 mph - 0.01 in   Overcast
6:15 AM 62.6 °F 60.8 °F 94% 30.22 in 10.0 mi NE 8.1 mph - N/A   Overcast
6:35 AM 62.6 °F 60.8 °F 94% 30.23 in 10.0 mi NE 9.2 mph - N/A   Overcast
6:55 AM 62.6 °F 60.8 °F 94% 30.24 in 10.0 mi NE 10.4 mph - N/A   Mostly Cloudy
7:15 AM 62.6 °F 60.8 °F 94% 30.24 in 10.0 mi NE 10.4 mph - N/A   Overcast
7:35 AM 62.6 °F 60.8 °F 94% 30.24 in 10.0 mi NE 9.2 mph - N/A   Overcast
7:55 AM 62.6 °F 60.8 °F 94% 30.24 in 10.0 mi NE 6.9 mph - N/A   Overcast
8:15 AM 62.6 °F 60.8 °F 94% 30.24 in 10.0 mi ENE 9.2 mph - N/A   Overcast
8:35 AM 62.6 °F 60.8 °F 94% 30.25 in 10.0 mi NE 6.9 mph - N/A   Mostly Cloudy
8:55 AM 62.6 °F 60.8 °F 94% 30.25 in 10.0 mi NE 5.8 mph - N/A   Overcast
9:15 AM 62.6 °F 60.8 °F 94% 30.25 in 10.0 mi NE 8.1 mph - N/A   Overcast
9:35 AM 62.6 °F 62.6 °F 100% 30.26 in 10.0 mi NE 10.4 mph - N/A   Overcast
9:55 AM 62.6 °F 62.6 °F 100% 30.26 in 10.0 mi NE 10.4 mph - N/A   Overcast
10:15 AM 64.4 °F 62.6 °F 94% 30.27 in 10.0 mi ENE 6.9 mph - N/A   Overcast
10:35 AM 64.4 °F 62.6 °F 94% 30.27 in 10.0 mi NE 9.2 mph - N/A   Overcast
10:55 AM 64.4 °F 60.8 °F 88% 30.28 in 10.0 mi NE 9.2 mph - N/A   Overcast
11:15 AM 64.4 °F 62.6 °F 94% 30.29 in 10.0 mi ENE 10.4 mph - N/A   Overcast
11:35 AM 64.4 °F 62.6 °F 94% 30.29 in 10.0 mi NE 6.9 mph - N/A   Overcast
11:55 AM 64.4 °F 62.6 °F 94% 30.29 in 10.0 mi NE 11.5 mph - N/A   Overcast
12:15 PM 64.4 °F 62.6 °F 94% 30.29 in 10.0 mi NE 10.4 mph - N/A   Overcast
12:35 PM 64.4 °F 62.6 °F 94% 30.28 in 10.0 mi ENE 9.2 mph - N/A   Overcast
12:55 PM 64.4 °F 62.6 °F 94% 30.28 in 10.0 mi ENE 10.4 mph - 0.01 in   Overcast
1:15 PM 64.4 °F 62.6 °F 94% 30.28 in 10.0 mi NE 10.4 mph - 0.02 in   Overcast
1:35 PM 66.2 °F 64.4 °F 94% 30.27 in 10.0 mi ENE 10.4 mph - 0.02 in   Overcast
1:55 PM 66.2 °F 64.4 °F 94% 30.27 in 10.0 mi ENE 10.4 mph - 0.02 in   Overcast
2:15 PM 66.2 °F 64.4 °F 94% 30.26 in 10.0 mi NE 9.2 mph - N/A   Mostly Cloudy
2:35 PM 66.2 °F 64.4 °F 94% 30.25 in 10.0 mi NE 8.1 mph - 0.01 in   Overcast
2:55 PM 66.2 °F 62.6 °F 88% 30.24 in 10.0 mi NE 9.2 mph - 0.01 in   Overcast
3:15 PM 68.0 °F 64.4 °F 88% 30.24 in 10.0 mi NE 9.2 mph - N/A   Overcast
3:35 PM 69.8 °F 62.6 °F 78% 30.23 in 10.0 mi NE 9.2 mph - N/A   Overcast
3:55 PM 69.8 °F 62.6 °F 78% 30.22 in 10.0 mi NNE 10.4 mph - N/A   Overcast
4:15 PM 69.8 °F 62.6 °F 78% 30.21 in 10.0 mi NE 9.2 mph - N/A   Overcast
4:35 PM 69.8 °F 62.6 °F 78% 30.20 in 10.0 mi NE 8.1 mph - N/A   Overcast
4:55 PM 69.8 °F 62.6 °F 78% 30.20 in 10.0 mi NE 10.4 mph - N/A   Overcast
5:15 PM 69.8 °F 62.6 °F 78% 30.19 in 10.0 mi NE 8.1 mph - N/A   Overcast
5:35 PM 71.6 °F 62.6 °F 73% 30.19 in 10.0 mi East 8.1 mph - N/A   Mostly Cloudy
5:55 PM 71.6 °F 62.6 °F 73% 30.19 in 5.0 mi East 8.1 mph - N/A   Overcast
6:35 PM 69.8 °F 62.6 °F 78% 30.19 in 10.0 mi ENE 11.5 mph - N/A   Overcast
6:55 PM 69.8 °F 62.6 °F 78% 30.19 in 10.0 mi ENE 10.4 mph - N/A   Overcast
7:15 PM 69.8 °F 62.6 °F 78% 30.19 in 8.0 mi ENE 12.7 mph - N/A   Mostly Cloudy
7:35 PM 68.0 °F 62.6 °F 83% 30.19 in 7.0 mi ENE 11.5 mph - N/A   Mostly Cloudy
7:55 PM 66.2 °F 64.4 °F 94% 30.19 in 5.0 mi East 12.7 mph - N/A   Overcast
8:15 PM 66.2 °F 62.6 °F 88% 30.19 in 8.0 mi ENE 10.4 mph - N/A   Overcast
8:35 PM 64.4 °F 62.6 °F 94% 30.19 in 10.0 mi ENE 8.1 mph - 0.01 in   Mostly Cloudy
8:55 PM 64.4 °F 62.6 °F 94% 30.20 in 10.0 mi NE 9.2 mph - 0.01 in   Scattered Clouds
9:35 PM 64.4 °F 62.6 °F 94% 30.22 in 10.0 mi ENE 6.9 mph - N/A   Clear
9:55 PM 64.4 °F 62.6 °F 94% 30.22 in 10.0 mi ENE 8.1 mph - N/A   Clear
10:35 PM 64.4 °F 62.6 °F 94% 30.23 in 10.0 mi NE 4.6 mph - N/A   Clear
11:15 PM 64.4 °F 62.6 °F 94% 30.22 in 10.0 mi NNE 9.2 mph - N/A   Partly Cloudy
11:35 PM 64.4 °F 62.6 °F 94% 30.23 in 10.0 mi NNE 5.8 mph - N/A   Clear
11:55 PM 62.6 °F 62.6 °F 100% 30.24 in 10.0 mi NE 5.8 mph - N/A   Clear